Volver al catálogo

STARLINK-37755

ActivoComunicacionesSSO
NORAD 69234·PAYLOAD·🇺🇸 United States

Lanzado May 26, 2026 desde Vandenberg Space Force Base

Loading…

Próximos Pases (próximas 24 horas)

TLE

ActualizadoSource: CelesTrak SupGP

Época: Sep 15, 2026, 04:18 UTC

1 69234C 26115Z   26258.17965278 -.00067002  00000+0 -20803-2 0  2586
2 69234  97.2834 275.1882 0001350  89.8284 147.1376 15.33467324    18

Sigue STARLINK-37755 en tiempo real con AllMySat

Download on the App Store